Regional Weather Roundup
Issued by NWS New Orleans/Baton Rouge, LA

Home | Current Version | Previous Version | Graphics & Text | Print | Product List | Glossary On
Versions: 1 2 3 4 5 6 7 8 9 10 11 12 13 14 15 16 17 18 19 20 21 22 23 24 25 26 27 28 29 30 31 32 33 34 35 36 37 38 39 40 41 42 43 44 45 46 47 48 49 50
924
ASUS44 KLIX 170810
RWRLIX
NEW ORLEANS REGIONAL WEATHER ROUNDUP
NATIONAL WEATHER SERVICE NEW ORLEANS LA
300 AM CDT THU APR 17 2014

NOTE: "FAIR" INDICATES FEW OR NO CLOUDS BELOW 12,000 FEET WITH NO
      SIGNIFICANT WEATHER AND/OR OBSTRUCTIONS TO VISIBILITY.
      SKY/WX - SKY CONDITION AND SIGNIFICANT WEATHER.
      TMP - AIR TEMPERATURE.     DP    - DEWPOINT TEMPERATURE.
      RH  - RELATIVE HUMIDITY.   PRES  - PRESSURE.
      HI  - HEAT INDEX.          WCI   - WIND CHILL INDEX.

*  THESE STATIONS ARE NOT NWS OR FAA STATIONS AND ARE NOT UNDER
   NWS QUALITY CONTROL.

LAZ038-040-048-061>063-065>067-069-170900-
SOUTHEAST LOUISIANA

CITY           SKY/WX    TMP DP  RH WIND       PRES   REMARKS
N.O. AUDUBON     N/A     55  47  72 MISG        N/A
N.O. INTL ARPT CLOUDY    55  49  80 E3        30.12F
N.O. LAKEFRONT CLOUDY    59  51  75 E8        30.13F
N.O. DOWNTOWN* CLOUDY    57  46  67 CALM      30.12F
SLIDELL        PTCLDY    48  46  93 N6        30.13F
BATON ROUGE    PTCLDY    47  43  86 CALM      30.13F
BOOTHVILLE     CLOUDY    61  51  70 SE8       30.12F
BELLE CHASSE   CLOUDY    53  50  89 CALM      30.11F
BOGALUSA*        N/A     44  41  90 CALM      30.17F
GALLIANO*      CLOUDY    61  52  72 NE6       30.10F
NEW ROADS*       N/A     47  43  86 CALM      30.14R
GONZALES*      PTSUNNY   46  46 100 CALM      30.12F
HAMMOND*       MOCLDY    46  43  87 CALM      30.15F
HOUMA*           N/A     56  48  76 NE5       30.10F
PORT FOURCHON* CLOUDY    64  52  63 SE9G16    30.11F

$$

MSZ070-080>082-170900-
SOUTHERN MISSISSIPPI

CITY           SKY/WX    TMP DP  RH WIND       PRES   REMARKS
MCCOMB         PTCLDY    43  41  93 CALM      30.15F
GULFPORT       CLOUDY    51  46  83 NE3       30.14F
BILOXI         CLOUDY    50  48  93 NE7       30.15S
PASCAGOULA     CLOUDY    49  48  97 N5        30.16S

$$

COASTAL OBSERVATIONS
LAKE AND NEARSHORE STATIONS

STATION/POSITION TIME  TEMP    WIND        PRES    WAVE
                       AIR SEA DIR/SP/G            HT/PER
                 (UTC) (F)     (DEG/KT/KT) (MB)    (FT/S)
PASCAGOULA       0800   55      30/  8/  9 1020.2
WAVELAND YACHT   0800   54 64   50/  9/ 12 1019.7
GRAND ISLE       0800   63 66  110/  6/ 13 1019.5
SOUTHWEST PASS   0800   63 58  110/ 18/ 21 1019.3
NEW CANAL        0800   56 63  170/  1/  2 1020.3
SHELL BEACH      0800   61 61   90/  9/ 12 1019.6

OFFSHORE STATIONS

STATION/POSITION TIME  TEMP    WIND        PRES    WAVE
                       AIR SEA DIR/SP/G            HT/PER
                 (UTC) (F)     (DEG/KT/KT) (MB)    (FT/S)
64 S DAUPHIN ISL 0738   67 69  110/ 19/ 23 1019.6

$$




USA.gov is the U.S. government's official web portal to all federal, state and local government web resources and services.